{"data":{"norad_id":65914,"intl_designator":"2025-225E","name":"STARLINK-35524","alt_names":[],"object_type":"PAYLOAD","status":"ACTIVE","operator":null,"country":"US","launch_date":"2025-10-08","launch_site_code":"AFWTR","launch_vehicle":null,"mission":null,"orbit_class":"UNKNOWN","rcs_meters":null,"size_class":null,"mass_kg":null,"dimensions":null,"purposes":["comms"],"wikipedia_slug":null,"has_3d_model":false,"image_url":null,"decayed_at":null,"tle_current":{"epoch":"2026-09-20T11:25:28.538400Z","epoch_age_seconds":105211,"freshness":"FRESH","line1":"1 65914U 25225E   26263.47602475  .00024035  00000+0  71939-3 0  9990","line2":"2 65914  53.1617 337.8756 0001104  78.8827 281.2300 15.34436565 54271","mean_motion":15.34436565,"eccentricity":0.0001104,"inclination_deg":53.1617,"raan_deg":337.8756,"arg_perigee_deg":78.8827,"mean_anomaly_deg":281.23,"bstar":0.00071939,"rev_number":5427,"period_min":93.845521727384,"perigee_km":461.83934671492,"apogee_km":463.34978024414,"semimajor_km":6840.7315634795,"source":"CELESTRAK","updated_at":"2026-09-21T09:00:35.762907Z"}}}